iso_date,epoch_date,Year,Hour,Min,DOY,POS_DOY,Lat,Lon,BP,Ts,Ta,has_bp,has_ts,has_ta,BuoyID,Buoy_Type,Buoy_Owner,Logistics,Hemisphere
2015-12-30T19:59:31Z,1451505571,2015,20,0,364.833,364.833,-75.0506,-29.6994,993.9,1.1,-1.0,yes,yes,yes,300234062786180,Snow_Buoy,AWI-USIABP,unknown,South
2015-12-30T21:00:00Z,1451509200,2015,21,0,364.875,364.875,-75.0454,-29.6902,994.1,0.5,-1.0,yes,yes,yes,300234062786180,Snow_Buoy,AWI-USIABP,unknown,South
2015-12-30T22:00:28Z,1451512829,2015,22,0,364.917,364.917,-75.0392,-29.6822,994.0,0.1,-1.2,yes,yes,yes,300234062786180,Snow_Buoy,AWI-USIABP,unknown,South
2015-12-30T22:59:31Z,1451516371,2015,23,0,364.958,364.958,-75.0316,-29.6748,993.7,-0.1,-1.5,yes,yes,yes,300234062786180,Snow_Buoy,AWI-USIABP,unknown,South
2015-12-31T00:00:00Z,1451520000,2015,0,0,365.0,365.0,-75.0224,-29.6706,993.5,-0.3,-1.9,yes,yes,yes,300234062786180,Snow_Buoy,AWI-USIABP,unknown,South
2015-12-31T01:00:28Z,1451523629,2015,1,0,365.042,365.042,-75.0126,-29.6706,993.1,-0.4,-2.4,yes,yes,yes,300234062786180,Snow_Buoy,AWI-USIABP,unknown,South
2015-12-31T01:59:31Z,1451527171,2015,2,0,365.083,365.083,-75.0022,-29.6748,992.9,-0.5,-2.5,yes,yes,yes,300234062786180,Snow_Buoy,AWI-USIABP,unknown,South
2015-12-31T03:00:00Z,1451530800,2015,3,0,365.125,365.125,-74.9918,-29.6834,992.4,-0.6,-3.2,yes,yes,yes,300234062786180,Snow_Buoy,AWI-USIABP,unknown,South
2015-12-31T04:00:28Z,1451534429,2015,4,0,365.167,365.167,-74.9822,-29.6944,992.1,-0.6,-3.4,yes,yes,yes,300234062786180,Snow_Buoy,AWI-USIABP,unknown,South
2015-12-31T04:59:31Z,1451537971,2015,5,0,365.208,365.208,-74.974,-29.7082,991.7,-0.7,-3.1,yes,yes,yes,300234062786180,Snow_Buoy,AWI-USIABP,unknown,South
2015-12-31T06:00:00Z,1451541600,2015,6,0,365.25,365.25,-74.9678,-29.723,991.4,-0.7,-3.4,yes,yes,yes,300234062786180,Snow_Buoy,AWI-USIABP,unknown,South
2015-12-31T07:00:28Z,1451545229,2015,7,1,365.292,365.292,-74.9636,-29.7374,991.1,-0.7,-2.9,yes,yes,yes,300234062786180,Snow_Buoy,AWI-USIABP,unknown,South
2015-12-31T07:59:31Z,1451548771,2015,8,0,365.333,365.333,-74.961,-29.7482,990.8,-0.7,-1.6,yes,yes,yes,300234062786180,Snow_Buoy,AWI-USIABP,unknown,South
2015-12-31T09:00:00Z,1451552400,2015,9,0,365.375,365.375,-74.9598,-29.7548,990.6,-0.7,-1.3,yes,yes,yes,300234062786180,Snow_Buoy,AWI-USIABP,unknown,South
2015-12-31T10:00:28Z,1451556029,2015,10,0,365.417,365.417,-74.9588,-29.7566,990.0,-0.7,-1.2,yes,yes,yes,300234062786180,Snow_Buoy,AWI-USIABP,unknown,South
2015-12-31T10:59:31Z,1451559571,2015,11,0,365.458,365.458,-74.9568,-29.754,989.7,-0.8,-1.1,yes,yes,yes,300234062786180,Snow_Buoy,AWI-USIABP,unknown,South
2015-12-31T12:00:00Z,1451563200,2015,12,0,365.5,365.5,-74.9536,-29.7478,989.4,-0.8,-1.6,yes,yes,yes,300234062786180,Snow_Buoy,AWI-USIABP,unknown,South
2015-12-31T13:00:28Z,1451566829,2015,13,0,365.542,365.542,-74.9492,-29.7386,989.0,-0.8,-1.3,yes,yes,yes,300234062786180,Snow_Buoy,AWI-USIABP,unknown,South
2015-12-31T13:59:31Z,1451570371,2015,14,0,365.583,365.583,-74.9438,-29.7272,988.9,-0.8,-1.1,yes,yes,yes,300234062786180,Snow_Buoy,AWI-USIABP,unknown,South
2015-12-31T15:00:00Z,1451574000,2015,15,0,365.625,365.625,-74.9374,-29.7152,988.7,-0.8,-0.8,yes,yes,yes,300234062786180,Snow_Buoy,AWI-USIABP,unknown,South
2015-12-31T16:00:28Z,1451577629,2015,16,0,365.667,365.667,-74.9306,-29.7046,988.6,-0.8,-0.6,yes,yes,yes,300234062786180,Snow_Buoy,AWI-USIABP,unknown,South
2015-12-31T16:59:31Z,1451581171,2015,17,0,365.708,365.708,-74.924,-29.694,988.5,-0.8,-0.5,yes,yes,yes,300234062786180,Snow_Buoy,AWI-USIABP,unknown,South
2015-12-31T18:00:00Z,1451584800,2015,18,0,365.75,365.75,-74.9176,-29.683,988.6,-0.8,-0.7,yes,yes,yes,300234062786180,Snow_Buoy,AWI-USIABP,unknown,South
2015-12-31T19:00:28Z,1451588429,2015,19,0,365.792,365.792,-74.9116,-29.6718,988.8,-0.8,-0.6,yes,yes,yes,300234062786180,Snow_Buoy,AWI-USIABP,unknown,South
2015-12-31T19:59:31Z,1451591971,2015,20,0,365.833,365.833,-74.906,-29.6602,989.0,-0.8,-0.6,yes,yes,yes,300234062786180,Snow_Buoy,AWI-USIABP,unknown,South
2015-12-31T21:00:00Z,1451595600,2015,21,0,365.875,365.875,-74.901,-29.647,989.1,-0.8,-1.1,yes,yes,yes,300234062786180,Snow_Buoy,AWI-USIABP,unknown,South
2015-12-31T22:00:28Z,1451599229,2015,22,0,365.917,365.917,-74.8958,-29.6338,989.2,-0.8,-1.0,yes,yes,yes,300234062786180,Snow_Buoy,AWI-USIABP,unknown,South
2015-12-31T22:59:31Z,1451602771,2015,23,0,365.958,365.958,-74.8906,-29.6212,989.2,-0.8,-1.6,yes,yes,yes,300234062786180,Snow_Buoy,AWI-USIABP,unknown,South
2016-01-01T00:00:00Z,1451606400,2016,0,0,1.0,1.0,-74.8856,-29.6092,989.4,-0.8,-1.7,yes,yes,yes,300234062786180,Snow_Buoy,AWI-USIABP,unknown,South
2016-01-01T01:00:28Z,1451610029,2016,1,0,1.042,1.042,-74.8796,-29.5966,989.6,-0.8,-2.0,yes,yes,yes,300234062786180,Snow_Buoy,AWI-USIABP,unknown,South
2016-01-01T01:59:31Z,1451613571,2016,2,0,1.083,1.083,-74.8726,-29.585,989.7,-0.8,-1.8,yes,yes,yes,300234062786180,Snow_Buoy,AWI-USIABP,unknown,South
2016-01-01T03:00:00Z,1451617200,2016,3,0,1.125,1.125,-74.8646,-29.5776,989.8,-0.8,-1.7,yes,yes,yes,300234062786180,Snow_Buoy,AWI-USIABP,unknown,South
2016-01-01T04:00:28Z,1451620829,2016,4,0,1.167,1.167,-74.856,-29.573,990.1,-0.8,-1.0,yes,yes,yes,300234062786180,Snow_Buoy,AWI-USIABP,unknown,South
2016-01-01T04:59:31Z,1451624371,2016,5,0,1.208,1.208,-74.8482,-29.574,990.1,-0.8,-2.2,yes,yes,yes,300234062786180,Snow_Buoy,AWI-USIABP,unknown,South
2016-01-01T06:00:00Z,1451628000,2016,6,0,1.25,1.25,-74.8412,-29.5804,990.4,-0.8,-3.1,yes,yes,yes,300234062786180,Snow_Buoy,AWI-USIABP,unknown,South
2016-01-01T07:00:28Z,1451631629,2016,7,0,1.292,1.292,-74.8356,-29.5894,990.9,-0.8,-3.6,yes,yes,yes,300234062786180,Snow_Buoy,AWI-USIABP,unknown,South
2016-01-01T07:59:31Z,1451635171,2016,8,0,1.333,1.333,-74.8312,-29.6008,991.4,-0.8,-2.6,yes,yes,yes,300234062786180,Snow_Buoy,AWI-USIABP,unknown,South
2016-01-01T09:00:00Z,1451638800,2016,9,0,1.375,1.375,-74.8294,-29.6124,991.8,-0.8,-2.8,yes,yes,yes,300234062786180,Snow_Buoy,AWI-USIABP,unknown,South
2016-01-01T10:00:28Z,1451642429,2016,10,0,1.417,1.417,-74.8292,-29.62,991.9,-0.8,-2.7,yes,yes,yes,300234062786180,Snow_Buoy,AWI-USIABP,unknown,South
2016-01-01T10:59:31Z,1451645971,2016,11,0,1.458,1.458,-74.8302,-29.6206,992.1,-0.8,-2.3,yes,yes,yes,300234062786180,Snow_Buoy,AWI-USIABP,unknown,South
2016-01-01T12:00:00Z,1451649600,2016,12,0,1.5,1.5,-74.8308,-29.614,992.3,-0.8,-2.2,yes,yes,yes,300234062786180,Snow_Buoy,AWI-USIABP,unknown,South
2016-01-01T13:00:28Z,1451653229,2016,13,0,1.542,1.542,-74.8308,-29.5998,992.5,-0.8,-2.0,yes,yes,yes,300234062786180,Snow_Buoy,AWI-USIABP,unknown,South
2016-01-01T13:59:31Z,1451656771,2016,14,0,1.583,1.583,-74.8288,-29.58,992.7,-0.8,-2.3,yes,yes,yes,300234062786180,Snow_Buoy,AWI-USIABP,unknown,South
2016-01-01T15:00:00Z,1451660400,2016,15,0,1.625,1.625,-74.825,-29.5582,992.9,-0.8,-2.8,yes,yes,yes,300234062786180,Snow_Buoy,AWI-USIABP,unknown,South
2016-01-01T16:00:28Z,1451664029,2016,16,0,1.667,1.667,-74.8196,-29.5356,993.3,-0.8,-2.7,yes,yes,yes,300234062786180,Snow_Buoy,AWI-USIABP,unknown,South
2016-01-01T16:59:31Z,1451667571,2016,17,0,1.708,1.708,-74.814,-29.514,993.6,-0.8,-2.8,yes,yes,yes,300234062786180,Snow_Buoy,AWI-USIABP,unknown,South
2016-01-01T18:00:00Z,1451671200,2016,18,0,1.75,1.75,-74.8086,-29.495,994.0,-0.8,-2.6,yes,yes,yes,300234062786180,Snow_Buoy,AWI-USIABP,unknown,South
2016-01-01T19:00:28Z,1451674829,2016,19,0,1.792,1.792,-74.8034,-29.4768,994.3,-0.8,-2.8,yes,yes,yes,300234062786180,Snow_Buoy,AWI-USIABP,unknown,South
2016-01-01T19:59:31Z,1451678371,2016,20,0,1.833,1.833,-74.798,-29.4616,994.8,-0.8,-3.1,yes,yes,yes,300234062786180,Snow_Buoy,AWI-USIABP,unknown,South
2016-01-01T21:00:00Z,1451682000,2016,21,0,1.875,1.875,-74.7936,-29.4482,995.1,-0.8,-3.3,yes,yes,yes,300234062786180,Snow_Buoy,AWI-USIABP,unknown,South
2016-01-01T22:00:28Z,1451685629,2016,22,0,1.917,1.917,-74.7902,-29.4386,995.5,-0.8,-3.7,yes,yes,yes,300234062786180,Snow_Buoy,AWI-USIABP,unknown,South
2016-01-01T22:59:31Z,1451689171,2016,23,0,1.958,1.958,-74.7886,-29.4326,995.8,-0.8,-4.1,yes,yes,yes,300234062786180,Snow_Buoy,AWI-USIABP,unknown,South
2016-01-02T00:00:00Z,1451692800,2016,0,0,2.0,2.0,-74.7878,-29.428,996.0,-0.8,-4.5,yes,yes,yes,300234062786180,Snow_Buoy,AWI-USIABP,unknown,South
2016-01-02T01:00:28Z,1451696429,2016,1,0,2.042,2.042,-74.7878,-29.4214,996.3,-0.8,-4.6,yes,yes,yes,300234062786180,Snow_Buoy,AWI-USIABP,unknown,South
2016-01-02T01:59:31Z,1451699971,2016,2,0,2.083,2.083,-74.7876,-29.4112,996.4,-0.8,-4.9,yes,yes,yes,300234062786180,Snow_Buoy,AWI-USIABP,unknown,South
2016-01-02T03:00:00Z,1451703600,2016,3,0,2.125,2.125,-74.7866,-29.3996,996.5,-0.8,-5.2,yes,yes,yes,300234062786180,Snow_Buoy,AWI-USIABP,unknown,South
2016-01-02T04:00:28Z,1451707229,2016,4,0,2.167,2.167,-74.785,-29.3874,996.8,-0.8,-5.3,yes,yes,yes,300234062786180,Snow_Buoy,AWI-USIABP,unknown,South
2016-01-02T04:59:31Z,1451710771,2016,5,0,2.208,2.208,-74.783,-29.3766,997.3,-0.8,-5.4,yes,yes,yes,300234062786180,Snow_Buoy,AWI-USIABP,unknown,South
2016-01-02T06:00:00Z,1451714400,2016,6,0,2.25,2.25,-74.7814,-29.3676,997.7,-0.7,-5.5,yes,yes,yes,300234062786180,Snow_Buoy,AWI-USIABP,unknown,South
2016-01-02T07:00:28Z,1451718029,2016,7,0,2.292,2.292,-74.78,-29.362,998.0,-0.7,-5.5,yes,yes,yes,300234062786180,Snow_Buoy,AWI-USIABP,unknown,South
2016-01-02T07:59:31Z,1451721571,2016,8,0,2.333,2.333,-74.7798,-29.3592,998.1,-0.7,-5.3,yes,yes,yes,300234062786180,Snow_Buoy,AWI-USIABP,unknown,South
2016-01-02T09:00:00Z,1451725200,2016,9,0,2.375,2.375,-74.7808,-29.356,998.2,-0.7,-5.0,yes,yes,yes,300234062786180,Snow_Buoy,AWI-USIABP,unknown,South
2016-01-02T10:00:28Z,1451728829,2016,10,0,2.417,2.417,-74.7834,-29.3506,998.1,-0.7,-4.4,yes,yes,yes,300234062786180,Snow_Buoy,AWI-USIABP,unknown,South
2016-01-02T10:59:31Z,1451732371,2016,11,0,2.458,2.458,-74.7864,-29.3446,998.1,-0.7,-3.8,yes,yes,yes,300234062786180,Snow_Buoy,AWI-USIABP,unknown,South
2016-01-02T12:00:00Z,1451736000,2016,12,0,2.5,2.5,-74.7898,-29.3378,998.3,-0.6,-3.3,yes,yes,yes,300234062786180,Snow_Buoy,AWI-USIABP,unknown,South
2016-01-02T13:00:28Z,1451739629,2016,13,0,2.542,2.542,-74.7924,-29.3298,998.4,-0.6,-3.0,yes,yes,yes,300234062786180,Snow_Buoy,AWI-USIABP,unknown,South
2016-01-02T13:59:31Z,1451743171,2016,14,0,2.583,2.583,-74.7946,-29.317,998.4,-0.6,-2.5,yes,yes,yes,300234062786180,Snow_Buoy,AWI-USIABP,unknown,South
2016-01-02T15:00:00Z,1451746800,2016,15,0,2.625,2.625,-74.7958,-29.2996,998.2,-0.6,-2.4,yes,yes,yes,300234062786180,Snow_Buoy,AWI-USIABP,unknown,South
2016-01-02T16:00:28Z,1451750429,2016,16,0,2.667,2.667,-74.7956,-29.2808,997.9,-0.6,-2.3,yes,yes,yes,300234062786180,Snow_Buoy,AWI-USIABP,unknown,South
2016-01-02T16:59:31Z,1451753971,2016,17,0,2.708,2.708,-74.7944,-29.261,997.7,-0.6,-2.1,yes,yes,yes,300234062786180,Snow_Buoy,AWI-USIABP,unknown,South
2016-01-02T18:00:00Z,1451757600,2016,18,0,2.75,2.75,-74.792,-29.2432,997.7,-0.6,-2.0,yes,yes,yes,300234062786180,Snow_Buoy,AWI-USIABP,unknown,South
2016-01-02T19:00:28Z,1451761229,2016,19,0,2.792,2.792,-74.7892,-29.2268,997.7,-0.6,-2.0,yes,yes,yes,300234062786180,Snow_Buoy,AWI-USIABP,unknown,South
2016-01-02T19:59:31Z,1451764771,2016,20,0,2.833,2.833,-74.7862,-29.2142,997.3,-0.6,-2.0,yes,yes,yes,300234062786180,Snow_Buoy,AWI-USIABP,unknown,South
2016-01-02T21:00:00Z,1451768400,2016,21,0,2.875,2.875,-74.7834,-29.2064,997.1,-0.5,-2.3,yes,yes,yes,300234062786180,Snow_Buoy,AWI-USIABP,unknown,South
2016-01-02T22:00:28Z,1451772029,2016,22,0,2.917,2.917,-74.7814,-29.203,996.6,-0.5,-2.8,yes,yes,yes,300234062786180,Snow_Buoy,AWI-USIABP,unknown,South
2016-01-02T22:59:31Z,1451775571,2016,23,0,2.958,2.958,-74.7804,-29.2022,996.1,-0.5,-3.7,yes,yes,yes,300234062786180,Snow_Buoy,AWI-USIABP,unknown,South
2016-01-03T00:00:00Z,1451779200,2016,0,0,3.0,3.0,-74.7802,-29.2016,995.6,-0.6,-4.1,yes,yes,yes,300234062786180,Snow_Buoy,AWI-USIABP,unknown,South
2016-01-03T01:00:28Z,1451782829,2016,1,0,3.042,3.042,-74.7808,-29.2008,995.0,-0.6,-4.6,yes,yes,yes,300234062786180,Snow_Buoy,AWI-USIABP,unknown,South
2016-01-03T01:59:31Z,1451786371,2016,2,0,3.083,3.083,-74.7816,-29.1982,994.4,-0.6,-4.4,yes,yes,yes,300234062786180,Snow_Buoy,AWI-USIABP,unknown,South
2016-01-03T03:00:00Z,1451790000,2016,3,0,3.125,3.125,-74.7824,-29.194,993.7,-0.6,-4.1,yes,yes,yes,300234062786180,Snow_Buoy,AWI-USIABP,unknown,South
2016-01-03T04:00:28Z,1451793629,2016,4,0,3.167,3.167,-74.7828,-29.189,992.8,-0.6,-3.9,yes,yes,yes,300234062786180,Snow_Buoy,AWI-USIABP,unknown,South
2016-01-03T04:59:31Z,1451797171,2016,5,0,3.208,3.208,-74.7824,-29.1844,992.2,-0.6,-3.6,yes,yes,yes,300234062786180,Snow_Buoy,AWI-USIABP,unknown,South
2016-01-03T06:00:00Z,1451800800,2016,6,0,3.25,3.25,-74.7816,-29.1806,991.6,-0.6,-3.1,yes,yes,yes,300234062786180,Snow_Buoy,AWI-USIABP,unknown,South
2016-01-03T07:00:28Z,1451804429,2016,7,0,3.292,3.292,-74.7808,-29.1776,990.7,-0.6,-2.5,yes,yes,yes,300234062786180,Snow_Buoy,AWI-USIABP,unknown,South
2016-01-03T07:59:31Z,1451807971,2016,8,0,3.333,3.333,-74.7804,-29.1738,990.1,-0.6,-2.6,yes,yes,yes,300234062786180,Snow_Buoy,AWI-USIABP,unknown,South
2016-01-03T09:00:00Z,1451811600,2016,9,0,3.375,3.375,-74.7806,-29.1716,989.4,-0.6,-2.5,yes,yes,yes,300234062786180,Snow_Buoy,AWI-USIABP,unknown,South
2016-01-03T10:00:28Z,1451815229,2016,10,0,3.417,3.417,-74.7816,-29.1678,988.6,-0.6,-2.2,yes,yes,yes,300234062786180,Snow_Buoy,AWI-USIABP,unknown,South
2016-01-03T10:59:31Z,1451818771,2016,11,0,3.458,3.458,-74.783,-29.1652,987.8,-0.6,-1.9,yes,yes,yes,300234062786180,Snow_Buoy,AWI-USIABP,unknown,South
2016-01-03T12:00:00Z,1451822400,2016,12,0,3.5,3.5,-74.785,-29.16,987.1,-0.6,-1.4,yes,yes,yes,300234062786180,Snow_Buoy,AWI-USIABP,unknown,South
2016-01-03T13:00:28Z,1451826029,2016,13,0,3.542,3.542,-74.7874,-29.1504,986.4,-0.6,-0.9,yes,yes,yes,300234062786180,Snow_Buoy,AWI-USIABP,unknown,South
2016-01-03T13:59:31Z,1451829571,2016,14,0,3.583,3.583,-74.7894,-29.1372,985.6,-0.5,-0.4,yes,yes,yes,300234062786180,Snow_Buoy,AWI-USIABP,unknown,South
2016-01-03T15:00:00Z,1451833200,2016,15,0,3.625,3.625,-74.7908,-29.1208,984.9,-0.5,-0.5,yes,yes,yes,300234062786180,Snow_Buoy,AWI-USIABP,unknown,South
2016-01-03T16:00:28Z,1451836829,2016,16,0,3.667,3.667,-74.7908,-29.101,984.1,-0.5,-0.6,yes,yes,yes,300234062786180,Snow_Buoy,AWI-USIABP,unknown,South
2016-01-03T16:59:31Z,1451840371,2016,17,0,3.708,3.708,-74.789,-29.0802,983.3,-0.5,-0.8,yes,yes,yes,300234062786180,Snow_Buoy,AWI-USIABP,unknown,South
2016-01-03T18:00:00Z,1451844000,2016,18,0,3.75,3.75,-74.7846,-29.0572,982.7,-0.5,-1.4,yes,yes,yes,300234062786180,Snow_Buoy,AWI-USIABP,unknown,South
2016-01-03T19:00:28Z,1451847629,2016,19,0,3.792,3.792,-74.7788,-29.0346,982.1,-0.5,-2.2,yes,yes,yes,300234062786180,Snow_Buoy,AWI-USIABP,unknown,South
2016-01-03T19:59:31Z,1451851171,2016,20,0,3.833,3.833,-74.7708,-29.0166,981.4,-0.5,-2.8,yes,yes,yes,300234062786180,Snow_Buoy,AWI-USIABP,unknown,South
2016-01-03T21:00:00Z,1451854800,2016,21,0,3.875,3.875,-74.7634,-29.0058,980.8,-0.5,-3.5,yes,yes,yes,300234062786180,Snow_Buoy,AWI-USIABP,unknown,South
2016-01-03T22:00:28Z,1451858429,2016,22,0,3.917,3.917,-74.7564,-28.9978,980.1,-0.5,-4.1,yes,yes,yes,300234062786180,Snow_Buoy,AWI-USIABP,unknown,South
2016-01-03T22:59:31Z,1451861971,2016,23,0,3.958,3.958,-74.7506,-28.9936,979.6,-0.6,-4.5,yes,yes,yes,300234062786180,Snow_Buoy,AWI-USIABP,unknown,South
2016-01-04T00:00:00Z,1451865600,2016,0,0,4.0,4.0,-74.7462,-28.9914,979.0,-0.6,-4.8,yes,yes,yes,300234062786180,Snow_Buoy,AWI-USIABP,unknown,South
2016-01-04T01:00:28Z,1451869229,2016,1,0,4.042,4.042,-74.7434,-28.9922,978.5,-0.6,-5.2,yes,yes,yes,300234062786180,Snow_Buoy,AWI-USIABP,unknown,South
2016-01-04T01:59:31Z,1451872771,2016,2,0,4.083,4.083,-74.742,-28.9934,978.0,-0.6,-5.7,yes,yes,yes,300234062786180,Snow_Buoy,AWI-USIABP,unknown,South
2016-01-04T03:00:00Z,1451876400,2016,3,0,4.125,4.125,-74.742,-28.993,977.5,-0.6,-6.0,yes,yes,yes,300234062786180,Snow_Buoy,AWI-USIABP,unknown,South
2016-01-04T04:00:28Z,1451880029,2016,4,0,4.167,4.167,-74.7428,-28.9924,977.2,-0.6,-6.6,yes,yes,yes,300234062786180,Snow_Buoy,AWI-USIABP,unknown,South
2016-01-04T04:59:31Z,1451883571,2016,5,0,4.208,4.208,-74.7446,-28.9892,976.9,-0.6,-6.7,yes,yes,yes,300234062786180,Snow_Buoy,AWI-USIABP,unknown,South
2016-01-04T06:00:00Z,1451887200,2016,6,0,4.25,4.25,-74.7458,-28.9864,976.2,-0.6,-6.5,yes,yes,yes,300234062786180,Snow_Buoy,AWI-USIABP,unknown,South
2016-01-04T07:00:28Z,1451890829,2016,7,0,4.292,4.292,-74.746,-28.985,976.0,-0.6,-6.2,yes,yes,yes,300234062786180,Snow_Buoy,AWI-USIABP,unknown,South
2016-01-04T07:59:31Z,1451894371,2016,8,0,4.333,4.333,-74.7456,-28.9846,975.9,-0.6,-5.2,yes,yes,yes,300234062786180,Snow_Buoy,AWI-USIABP,unknown,South
2016-01-04T09:00:00Z,1451898000,2016,9,0,4.375,4.375,-74.7448,-28.9856,975.6,-0.6,-4.9,yes,yes,yes,300234062786180,Snow_Buoy,AWI-USIABP,unknown,South
2016-01-04T10:00:28Z,1451901629,2016,10,0,4.417,4.417,-74.744,-28.988,975.5,-0.6,-4.3,yes,yes,yes,300234062786180,Snow_Buoy,AWI-USIABP,unknown,South
2016-01-04T10:59:31Z,1451905171,2016,11,0,4.458,4.458,-74.7438,-28.9912,975.2,-0.6,-3.6,yes,yes,yes,300234062786180,Snow_Buoy,AWI-USIABP,unknown,South
2016-01-04T12:00:00Z,1451908800,2016,12,0,4.5,4.5,-74.7444,-28.9948,974.9,-0.6,-2.7,yes,yes,yes,300234062786180,Snow_Buoy,AWI-USIABP,unknown,South
2016-01-04T13:00:28Z,1451912429,2016,13,0,4.542,4.542,-74.7458,-28.9956,974.8,-0.6,-2.0,yes,yes,yes,300234062786180,Snow_Buoy,AWI-USIABP,unknown,South
2016-01-04T13:59:31Z,1451915971,2016,14,0,4.583,4.583,-74.7484,-28.9922,974.7,-0.6,-0.8,yes,yes,yes,300234062786180,Snow_Buoy,AWI-USIABP,unknown,South
2016-01-04T15:00:00Z,1451919600,2016,15,0,4.625,4.625,-74.7518,-28.9844,974.5,-0.6,0.1,yes,yes,yes,300234062786180,Snow_Buoy,AWI-USIABP,unknown,South
2016-01-04T16:00:28Z,1451923229,2016,16,0,4.667,4.667,-74.7552,-28.9702,974.4,-0.6,-0.3,yes,yes,yes,300234062786180,Snow_Buoy,AWI-USIABP,unknown,South
2016-01-04T16:59:31Z,1451926771,2016,17,0,4.708,4.708,-74.7576,-28.954,974.0,-0.5,-1.4,yes,yes,yes,300234062786180,Snow_Buoy,AWI-USIABP,unknown,South
2016-01-04T18:00:00Z,1451930400,2016,18,0,4.75,4.75,-74.7582,-28.9372,974.0,-0.5,-2.1,yes,yes,yes,300234062786180,Snow_Buoy,AWI-USIABP,unknown,South
2016-01-04T19:00:28Z,1451934029,2016,19,0,4.792,4.792,-74.7562,-28.9232,974.2,-0.5,-2.5,yes,yes,yes,300234062786180,Snow_Buoy,AWI-USIABP,unknown,South
2016-01-04T19:59:31Z,1451937571,2016,20,0,4.833,4.833,-74.753,-28.9108,974.2,-0.5,-2.7,yes,yes,yes,300234062786180,Snow_Buoy,AWI-USIABP,unknown,South
2016-01-04T21:00:00Z,1451941200,2016,21,0,4.875,4.875,-74.7492,-28.9004,974.3,-0.5,-2.6,yes,yes,yes,300234062786180,Snow_Buoy,AWI-USIABP,unknown,South
2016-01-04T22:00:28Z,1451944829,2016,22,0,4.917,4.917,-74.745,-28.8954,974.4,-0.5,-2.8,yes,yes,yes,300234062786180,Snow_Buoy,AWI-USIABP,unknown,South
2016-01-04T22:59:31Z,1451948371,2016,23,0,4.958,4.958,-74.7416,-28.9004,974.4,-0.5,-3.5,yes,yes,yes,300234062786180,Snow_Buoy,AWI-USIABP,unknown,South
2016-01-05T00:00:00Z,1451952000,2016,0,0,5.0,5.0,-74.7396,-28.9138,974.5,-0.5,-3.8,yes,yes,yes,300234062786180,Snow_Buoy,AWI-USIABP,unknown,South
2016-01-05T01:00:28Z,1451955629,2016,1,0,5.042,5.042,-74.7394,-28.9354,974.8,-0.5,-3.2,yes,yes,yes,300234062786180,Snow_Buoy,AWI-USIABP,unknown,South
2016-01-05T01:59:31Z,1451959171,2016,2,0,5.083,5.083,-74.7422,-28.964,974.9,-0.6,-3.8,yes,yes,yes,300234062786180,Snow_Buoy,AWI-USIABP,unknown,South
2016-01-05T03:00:00Z,1451962800,2016,3,0,5.125,5.125,-74.7474,-28.9932,975.0,-0.6,-3.8,yes,yes,yes,300234062786180,Snow_Buoy,AWI-USIABP,unknown,South
2016-01-05T04:00:28Z,1451966429,2016,4,0,5.167,5.167,-74.7546,-29.0218,975.1,-0.6,-3.7,yes,yes,yes,300234062786180,Snow_Buoy,AWI-USIABP,unknown,South
2016-01-05T04:59:31Z,1451969971,2016,5,0,5.208,5.208,-74.7634,-29.048,975.2,-0.6,-3.4,yes,yes,yes,300234062786180,Snow_Buoy,AWI-USIABP,unknown,South
2016-01-05T06:00:00Z,1451973600,2016,6,0,5.25,5.25,-74.7728,-29.0692,975.3,-0.6,-3.3,yes,yes,yes,300234062786180,Snow_Buoy,AWI-USIABP,unknown,South
2016-01-05T07:00:28Z,1451977229,2016,7,0,5.292,5.292,-74.7828,-29.0844,975.5,-0.6,-3.0,yes,yes,yes,300234062786180,Snow_Buoy,AWI-USIABP,unknown,South
2016-01-05T07:59:31Z,1451980771,2016,8,0,5.333,5.333,-74.7924,-29.0928,975.7,-0.6,-2.2,yes,yes,yes,300234062786180,Snow_Buoy,AWI-USIABP,unknown,South
2016-01-05T09:00:00Z,1451984400,2016,9,0,5.375,5.375,-74.8016,-29.0986,975.7,-0.6,-2.0,yes,yes,yes,300234062786180,Snow_Buoy,AWI-USIABP,unknown,South
2016-01-05T10:00:28Z,1451988029,2016,10,0,5.417,5.417,-74.8096,-29.103,975.9,-0.6,-2.1,yes,yes,yes,300234062786180,Snow_Buoy,AWI-USIABP,unknown,South
2016-01-05T10:59:31Z,1451991571,2016,11,0,5.458,5.458,-74.8164,-29.1092,976.1,-0.6,-2.0,yes,yes,yes,300234062786180,Snow_Buoy,AWI-USIABP,unknown,South
2016-01-05T12:00:00Z,1451995200,2016,12,0,5.5,5.5,-74.824,-29.1184,976.1,-0.6,-2.3,yes,yes,yes,300234062786180,Snow_Buoy,AWI-USIABP,unknown,South
2016-01-05T13:00:28Z,1451998829,2016,13,0,5.542,5.542,-74.832,-29.13,976.1,-0.5,-2.4,yes,yes,yes,300234062786180,Snow_Buoy,AWI-USIABP,unknown,South
2016-01-05T13:59:31Z,1452002371,2016,14,0,5.583,5.583,-74.841,-29.1426,976.1,-0.5,-2.2,yes,yes,yes,300234062786180,Snow_Buoy,AWI-USIABP,unknown,South
2016-01-05T15:00:00Z,1452006000,2016,15,0,5.625,5.625,-74.8506,-29.1516,975.7,-0.5,-1.9,yes,yes,yes,300234062786180,Snow_Buoy,AWI-USIABP,unknown,South
2016-01-05T16:00:28Z,1452009629,2016,16,0,5.667,5.667,-74.8596,-29.1552,975.3,-0.5,-1.6,yes,yes,yes,300234062786180,Snow_Buoy,AWI-USIABP,unknown,South
2016-01-05T16:59:31Z,1452013171,2016,17,0,5.708,5.708,-74.8682,-29.1526,975.2,-0.5,-1.7,yes,yes,yes,300234062786180,Snow_Buoy,AWI-USIABP,unknown,South
2016-01-05T18:00:00Z,1452016800,2016,18,0,5.75,5.75,-74.8752,-29.1464,975.1,-0.5,-1.4,yes,yes,yes,300234062786180,Snow_Buoy,AWI-USIABP,unknown,South
2016-01-05T19:00:28Z,1452020429,2016,19,0,5.792,5.792,-74.88,-29.1382,974.9,-0.5,-1.4,yes,yes,yes,300234062786180,Snow_Buoy,AWI-USIABP,unknown,South
2016-01-05T19:59:31Z,1452023971,2016,20,0,5.833,5.833,-74.8826,-29.1316,974.8,-0.5,-1.6,yes,yes,yes,300234062786180,Snow_Buoy,AWI-USIABP,unknown,South
2016-01-05T21:00:00Z,1452027600,2016,21,0,5.875,5.875,-74.8826,-29.1278,974.5,-0.5,-1.7,yes,yes,yes,300234062786180,Snow_Buoy,AWI-USIABP,unknown,South
2016-01-05T22:00:28Z,1452031229,2016,22,0,5.917,5.917,-74.881,-29.1304,974.3,-0.5,-1.8,yes,yes,yes,300234062786180,Snow_Buoy,AWI-USIABP,unknown,South
2016-01-05T22:59:31Z,1452034771,2016,23,0,5.958,5.958,-74.8788,-29.1434,974.1,-0.5,-1.9,yes,yes,yes,300234062786180,Snow_Buoy,AWI-USIABP,unknown,South
2016-01-06T00:00:00Z,1452038400,2016,0,0,6.0,6.0,-74.8762,-29.1614,973.8,-0.5,-1.8,yes,yes,yes,300234062786180,Snow_Buoy,AWI-USIABP,unknown,South
2016-01-06T01:00:28Z,1452042029,2016,1,0,6.042,6.042,-74.874,-29.1852,973.6,-0.5,-1.9,yes,yes,yes,300234062786180,Snow_Buoy,AWI-USIABP,unknown,South
2016-01-06T01:59:31Z,1452045571,2016,2,0,6.083,6.083,-74.8736,-29.2144,973.2,-0.5,-2.1,yes,yes,yes,300234062786180,Snow_Buoy,AWI-USIABP,unknown,South
2016-01-06T03:00:00Z,1452049200,2016,3,0,6.125,6.125,-74.8754,-29.244,972.9,-0.5,-2.0,yes,yes,yes,300234062786180,Snow_Buoy,AWI-USIABP,unknown,South
2016-01-06T04:00:28Z,1452052829,2016,4,0,6.167,6.167,-74.8804,-29.2728,972.3,-0.5,-2.1,yes,yes,yes,300234062786180,Snow_Buoy,AWI-USIABP,unknown,South
2016-01-06T04:59:31Z,1452056371,2016,5,0,6.208,6.208,-74.8866,-29.2982,972.1,-0.5,-2.0,yes,yes,yes,300234062786180,Snow_Buoy,AWI-USIABP,unknown,South
2016-01-06T06:00:00Z,1452060000,2016,6,0,6.25,6.25,-74.8936,-29.3186,971.6,-0.5,-1.9,yes,yes,yes,300234062786180,Snow_Buoy,AWI-USIABP,unknown,South
2016-01-06T07:00:28Z,1452063629,2016,7,0,6.292,6.292,-74.9006,-29.3326,971.2,-0.5,-1.8,yes,yes,yes,300234062786180,Snow_Buoy,AWI-USIABP,unknown,South
2016-01-06T07:59:31Z,1452067171,2016,8,0,6.333,6.333,-74.9064,-29.3394,970.8,-0.5,-1.6,yes,yes,yes,300234062786180,Snow_Buoy,AWI-USIABP,unknown,South
2016-01-06T09:00:00Z,1452070800,2016,9,0,6.375,6.375,-74.9108,-29.3422,970.3,-0.5,-1.5,yes,yes,yes,300234062786180,Snow_Buoy,AWI-USIABP,unknown,South